Orbital elements:
    P/2005 JQ5 (Catalina)
Epoch 2005 July 9.0 TT = JDT 2453560.5
T 2005 July 28.03404 TT                                 MPC
q   0.8255914            (2000.0)            P               Q
n   0.22284759     Peri.  222.68363     +0.74614612     +0.65842139
a   2.6944125      Node    95.86136     -0.58095167     +0.71631126
e   0.6935913      Incl.    5.69581     -0.32520934     +0.23103993
P   4.42
Residuals in seconds of arc
050506 703  0.9-  0.2-    050517 938  0.0   0.4+    050531 H45  1.2+  0.3-
050506 703  0.6-  0.4-    050518 938  0.2-  0.4+    050531 703 (4.4+  5.1-)
050506 703  0.1+  0.0     050518 785  0.9-  1.8+    050531 703 (5.3+  4.9-)
050506 703  0.1-  0.0     050518 785  2.0-  0.9+    050531 703 (4.1+  5.3-)
050506 703  0.8-  0.9-    050518 673  0.1-  0.6+    050531 H06  0.0   0.4-
050506 703  0.4-  0.9-    050518 673  0.0   0.5+    050531 703 (5.4+  5.6-)
050506 703  0.1+  0.5-    050518 673  0.0   0.5+    050531 H06 (4.0+  1.9-)
050506 A50  0.3+  0.5+    050518 673  0.1-  0.6+    050531 H06  1.1-  0.5+
050506 A50  0.4+  0.7+    050518 H45  0.3+  0.0     050531 H06  1.8+  0.9-
050506 A50  0.1+  0.4+    050518 H45  0.2+  0.0     050531 372  0.5+  0.4+
050506 A50  0.2+  0.5+    050518 H45  0.1-  0.3+    050531 349  0.7+  0.4-
050506 108  0.8-  1.9-    050518 H45  0.3+  1.1+    050531 349  0.7+  0.2-
050506 A50  0.3+  0.4+    050518 H45  0.4+  0.9+    050531 349  0.6+  0.1-
050506 108  1.3-  1.8-    050518 A06  1.8+  1.2-    050601 G96 (1.9+  2.1-)
050506 108  0.6-  0.1-    050518 198  0.0   0.2+    050601 G96  1.9+  1.8-
050506 J87  0.4+  0.4-    050518 198  0.1-  0.3+    050601 G96  1.9+  1.8-
050506 J87  0.2-  0.1-    050518 198  0.3-  0.4+    050601 G96 (2.2+  2.2-)
050506 J87  0.2-  0.4+    050518 A06  1.4+  1.0-    050601 G96 (2.1+  2.1-)
050506 A06  0.2+  0.3+    050518 213  0.6+  0.2+    050601 G96 (2.4+  2.4-)
050506 A06  0.4+  0.5-    050518 213  0.3+  0.1+    050601 G96 (2.7+  2.7-)
050506 A06  0.2+  0.0     050518 A17  0.1-  0.0     050601 G96 (2.6+  2.6-)
050507 176  0.2-  0.1+    050518 213  0.1+  0.5+    050601 157  0.5-  0.3-
050507 176  0.2-  0.1+    050518 213  0.4+  0.5+    050601 A46  0.2+  0.1+
050507 176  0.2-  0.1+    050518 A06  1.4+  1.0-    050601 A46  0.1-  0.2-
050507 A06  0.1-  0.5+    050518 A17  0.0   0.3+    050601 A46  0.2+  0.2+
050507 176  0.2-  0.2+    050518 A17  0.1-  0.1+    050601 A46  0.3+  0.2+
050507 176  0.2-  0.1+    050519 A61  1.6+  1.6-    050601 A46  0.2+  0.3+
050507 A06  0.2+  0.8-    050519 A61  0.8+  0.1+    050601 A46  0.2-  0.0
050507 A61  0.2+  0.5-    050519 A61  1.1-  0.2-    050602 F65  0.4-  0.4+
050507 A61  0.0   0.4-    050519 A61  0.9-  0.4+    050602 F65  0.3-  0.4+
050507 A61  0.1-  0.2+    050519 A61  0.2-  0.4-    050602 F65  0.6-  0.3+
050507 A61  0.6+  0.5-    050519 703  0.6-  0.7-    050602 F65 (8.7+  9.6+)
050507 A61  0.3+  0.9-    050519 703 (1.6+  2.0-)   050602 233  1.4+  1.6-
050507 A61  0.4+  0.4+    050519 703  0.8+  1.3-    050602 233  0.8+  0.2+
050507 I77  0.3-  0.0     050519 048  0.7+  0.1-    050602 233  0.6+  0.4-
050507 I77  0.1-  0.1+    050519 048  1.4+  0.0     050602 233  1.9+  0.5-
050507 493  0.1-  0.3+    050519 048  0.2+  0.0     050602 J76  0.3+  0.1+
050507 493  0.0   0.4+    050519 048  0.6+  0.4-    050602 J76  0.2+  0.1+
050507 I77  0.2-  0.2+    050519 048  1.7+  0.2-    050602 J76  0.1+  0.0
050507 493  0.1-  0.3+    050519 557  0.0   0.3-    050602 J97  1.2-  0.8+
050507 717  0.3+  0.5-    050519 557  0.3-  0.3-    050602 147  0.3-  0.3+
050507 717  0.1-  0.0     050519 557  0.2+  0.1+    050602 147  0.1-  0.0
050507 717  0.0   0.3-    050519 557  0.5-  0.5-    050602 147  0.2-  0.1+
050507 703  0.4-  0.7-    050519 557  0.1-  0.2+    050602 147  0.3-  0.1+
050507 703  0.8+  1.4-    050519 557  0.3-  0.4-    050603 699 (5.7+  5.2-)
050507 703  0.5-  0.2-    050519 203  0.4-  0.4-    050603 699 (3.0+  2.6-)
050507 703  0.4-  0.1+    050519 203  0.3-  0.2+    050603 699  1.9+  1.4-
050507 G96  0.4-  0.3-    050519 213  0.4+  0.6+    050603 699 (5.1+  5.5-)
050507 G96  0.6-  0.3-    050519 213  0.6+  0.6+    050603 157  0.1+  0.2+
050507 G96  0.3-  0.2-    050519 213  0.0   0.4+    050603 157  0.2-  0.2+
050507 G96  0.3-  0.1-    050520 I77  0.0   0.6-    050603 157  0.0   0.0
050507 G96  0.3-  0.2-    050520 I77  0.1+  0.3-    050603 157  0.2-  0.6+
050507 G96  0.2+  0.1-    050520 644  0.0   0.1+    050603 157  0.4-  0.1+
050507 G96  0.1-  0.3-    050520 644  0.1+  0.1+    050603 157  0.4+  0.2-
050507 G96  0.2+  0.7+    050520 644  0.1+  0.1-    050603 J78  1.3+  0.8+
050507 854  0.5+  1.0+    050520 644  0.1+  0.0     050603 J78  0.4+  0.5+
050507 854  0.6+  0.8+    050520 644  0.0   0.1-    050603 J78  0.2-  0.8+
050507 854  0.3+  0.7+    050520 644  0.1-  0.1+    050603 939  0.6+  0.5-
050507 322  0.5+  0.1+    050520 H45  0.3-  0.6-    050603 939  0.3+  0.3-
050507 322  0.6+  0.9+    050520 H45  0.6+  0.5-    050603 939  0.1-  0.2-
050507 322  0.4+  0.5+    050520 A06  1.2+  0.9-    050604 360  0.1+  0.4+
050507 108  0.0   1.1-    050520 A06  1.2+  0.7-    050604 360  0.2-  0.4+
050507 108  0.9-  1.4-    050520 A06  1.1+  0.1-    050604 360  0.3-  0.4+
050507 108  0.5+  0.3-    050521 932  0.1-  0.2+    050604 J78  0.7+  0.3+
050507 108  1.4+  0.7-    050521 932  0.0   0.2+    050604 J78  1.2+  0.5+
050507 J95  0.1-  0.1-    050521 932  0.3-  0.2-    050604 J78  1.2+  0.8+
050507 J95  0.1-  0.1-    050524 198  0.1+  0.3+    050605 A01  0.6+  1.9-
050507 J95  0.1-  0.1+    050524 198  0.0   0.3+    050605 A01 (2.8+  1.0-)
050507 J95  0.1+  0.1-    050524 198  0.1+  0.3+    050605 340  0.6+  0.6-
050508 J95  0.2+  0.2+    050524 198  0.1+  0.4+    050605 340  0.3+  0.2-
050508 A06  0.5+  0.8+    050524 198  0.1+  0.4+    050605 340  0.4+  1.0-
050508 A06  1.9+  0.4-    050525 I77  0.1-  0.4-    050605 349  0.5+  0.5-
050508 A06  1.6-  1.6+    050525 I77  0.2+  0.5+    050605 349  0.1-  0.2-
050509 J95  0.0   0.1+    050525 I77  0.0   0.1+    050605 349  0.2-  0.1-
050509 951  0.2+  0.8+    050525 349  1.0+  0.5-    050605 J97  0.8+  0.2-
050509 J95  0.0   0.0     050525 349  0.9+  1.0-    050605 945  1.1-  1.0+
050509 J95  0.0   0.1-    050525 349  0.7+  1.1-    050605 945  1.1-  0.8+
050509 951  0.2+  0.4+    050525 595  0.3+  0.3+    050605 945  0.6-  0.4+
050509 951  0.2+  0.7+    050525 595  0.0   0.1+    050605 945  0.9-  0.4+
050509 932  0.2-  0.2+    050525 151  0.2+  0.4+    050605 945  0.6-  0.9+
050509 932  0.1-  0.1+    050525 595  0.5+  0.5+    050606 D88  1.2+  0.7-
050509 932  0.2-  0.0     050525 151  0.1-  0.3+    050606 D88  1.6+  0.5-
050509 198  0.0   0.5+    050525 151  0.0   0.3+    050606 D83  0.8-  0.9+
050509 198  0.0   0.3+    050525 151  0.2+  0.3+    050606 D83  1.3+  1.0+
050509 198  0.1+  0.2+    050525 595  0.0   0.3+    050606 D83  0.1-  1.7+
050509 198  0.0   0.2+    050525 151  0.3+  0.3+    050606 D83  0.9+  0.0
050510 932  0.1-  0.4+    050525 151  0.2+  0.4+    050606 J76  1.7-  0.2+
050510 932  0.2-  0.4+    050525 595  1.1+  0.4-    050606 J76  1.7-  0.1+
050510 452  0.2+  0.9+    050525 203  0.9-  0.4-    050606 J76  1.4-  0.1+
050510 932  0.2-  0.3+    050525 203  1.1-  0.3-    050606 J78  0.2+  0.5+
050510 452  0.3+  0.2+    050525 J78  0.6+  0.9+    050606 J78  0.0   0.5+
050510 452  0.2+  0.2+    050525 J78  1.4-  0.6-    050606 J78  0.2+  0.5+
050510 452  0.1+  0.2+    050525 J78  0.3+  0.7+    050606 945  2.0-  0.7+
050510 452  0.1+  0.0     050526 340  0.5+  1.2+    050606 945  2.0-  0.6+
050510 734  0.2-  0.2+    050526 340 (2.1+  0.1-)   050606 945 (2.0-  0.8+)
050510 734  0.2-  0.2+    050526 340  0.8-  0.3-    050606 945  1.2-  0.5+
050510 734  0.2+  0.0     050526 151  0.2+  0.1+    050606 945  1.8-  1.0+
050510 H45  0.3-  0.7+    050526 A06 (2.3+  0.7-)   050606 I77  0.2+  1.4-
050510 H45  1.5+  0.1+    050526 151  0.3+  0.0     050606 I77  0.1-  0.2-
050510 H45  0.8+  0.0     050526 A06 (2.3+  0.8-)   050607 703 (2.3+  2.4-)
050510 H45  0.6-  0.5-    050526 151  0.1+  0.0     050607 703 (3.9+  2.6-)
050510 H45  0.4-  0.3-    050526 151  0.1+  0.2+    050607 703 (5.4+  4.1-)
050510 H45  0.6-  0.8-    050526 A06 (2.2+  1.0-)   050607 703 (5.8+  5.3-)
050510 649  0.1-  0.3+    050526 151  0.4+  0.3+    050607 734  0.0   0.9-
050510 649  0.1-  0.2+    050526 151  0.3+  0.3+    050607 734  0.9+  1.0-
050510 649  0.1-  0.2+    050526 203  0.2+  0.3+    050607 734  1.1+  0.3+
050511 J95  0.1-  0.2-    050526 048  0.1-  0.0     050607 734  0.3-  0.3+
050511 J95  0.1+  0.2-    050526 048  0.2-  0.1+    050607 213  0.1-  0.5+
050511 J95  0.0   0.1-    050526 048  0.0   0.2+    050607 213  0.1-  0.0
050511 699  1.0+  1.3+    050526 461  0.1-  0.6+    050607 213  0.1-  0.1+
050511 699  0.5+  0.0     050526 048  0.3-  0.2+    050607 203  0.8-  0.5+
050511 699  0.3+  0.5+    050526 048  0.1+  0.2-    050607 170  0.1-  0.1-
050511 703  0.1-  0.7-    050526 461  0.2-  0.5+    050607 170  0.7+  0.1-
050511 703  0.2-  0.1+    050526 461  0.0   0.6+    050607 170  0.2-  0.2-
050511 699  0.2+  0.8-    050526 461  0.3-  0.6+    050607 203  0.5-  0.0
050511 703  0.1-  0.8-    050526 461  0.1-  0.6+    050608 945  1.8-  0.1-
050511 703  0.2+  0.5-    050527 I77 (1.2+  2.3-)   050608 945  1.1-  0.0
050511 151  0.1-  0.1+    050527 I77 (0.5+  2.4-)   050608 945 (2.4-  1.0+)
050511 151  0.2+  0.2-    050527 I77  1.4+  0.5-    050608 945  1.9-  1.0+
050511 151  0.1+  0.0     050527 104  0.4+  0.5+    050608 945 (2.3-  0.8+)
050511 A17  0.1-  0.2+    050527 104  0.2+  0.1-    050608 J76  0.2+  0.4+
050511 A17  0.1+  0.2+    050527 104  0.4+  0.3+    050608 J76  0.2+  0.3+
050511 A17  0.1-  0.2+    050527 104  0.5+  0.1-    050608 J76  0.3+  0.6+
050511 198  0.1+  0.3+    050527 A06 (2.5+  1.3-)   050609 J97 (2.7-  0.1+)
050511 012  0.1+  0.3-    050527 A06 (2.3+  0.9-)   050609 J97  0.3-  0.7-
050511 198  0.1+  0.4+    050527 A06 (2.2+  0.8-)   050609 J97  0.5+  0.2-
050511 012  0.0   0.2-    050527 611  1.8+  0.9-    050609 941  0.2+  0.0
050511 198  0.1-  0.3+    050527 442  1.4-  0.0     050609 941  0.0   0.2+
050511 198  0.1+  0.5+    050527 442  1.5-  0.1+    050609 941  0.1-  0.1+
050511 012  0.0   0.1-    050527 442  1.0-  0.1-    050609 941  0.2-  0.2+
050512 012  0.3+  0.4-    050527 442  1.3-  0.1+    050609 I77  1.8+  1.0-
050512 012  0.1+  0.1-    050527 611 (2.4+  2.0-)   050609 945  1.6-  0.3+
050512 012  0.0   0.2-    050527 611  1.1+  1.2-    050609 I77 (2.5+  1.3-)
050512 012  0.1+  0.3-    050527 147  1.0+  0.3+    050609 I77  0.8-  0.4+
050512 012  0.0   0.3-    050527 147  0.9+  0.2+    050609 945 (2.0-  0.5-)
050512 J95  0.2-  0.2-    050527 147  0.2-  0.2+    050609 I77  0.0   1.2-
050512 J95  0.2-  0.4-    050527 147  0.1+  0.1+    050609 945  0.4-  0.3-
050512 J95  0.3-  0.1-    050527 170  0.0   0.4+    050609 945 (3.0-  0.4+)
050512 844  1.0-  0.6+    050527 170  0.2+  0.2+    050609 945 (2.5-  0.3+)
050512 844  0.8-  0.7+    050527 170  0.0   0.2+    050610 157  0.1+  0.1+
050512 932  0.2-  0.1+    050527 213  0.5-  0.2+    050610 157  0.2-  0.1+
050512 844  1.4-  0.4+    050527 213  0.1-  0.1+    050610 157  0.5-  0.0
050512 844  0.6-  0.5+    050527 213  0.2-  0.3+    050610 157  0.6-  0.6+
050512 844  0.9-  0.9+    050527 048  0.5+  0.8+    050610 157  0.1+  0.0
050512 932  0.0   0.4+    050527 048  1.1+  1.0+    050610 157  0.5-  0.2+
050512 932  0.1-  0.0     050527 048  0.1+  0.7+    050610 233  0.2+  0.1-
050512 H45  0.3-  1.3+    050527 048  0.5-  0.8+    050610 233  1.8+  1.0+
050512 H45  1.6-  0.2+    050527 048  0.2+  0.3+    050610 203  0.2+  0.4-
050512 H45  0.3-  0.6+    050527 J78  0.4+  0.3+    050610 233  1.0+  0.4-
050512 H45  0.7-  0.7+    050527 J78  0.2+  0.6+    050610 203  1.5+  0.4-
050512 H45  0.5-  0.4+    050527 J78  1.6-  0.1+    050610 A06 (4.6+  1.1-)
050512 608  0.0   0.5-    050527 A18  0.5+  0.1+    050610 A06 (4.6+  1.1-)
050512 608  0.4+  0.6-    050527 A32  0.5+  0.3-    050610 A06 (4.8+  1.1-)
050512 608  0.2+  0.4-    050527 A32  0.8+  0.2-    050610 213  0.0   0.2+
050512 599  0.0   0.4+    050527 A32  0.2+  0.0     050610 213  0.2+  0.1+
050512 599  0.1+  0.4+    050527 A32  0.2+  0.0     050610 213  0.1-  0.2-
050512 599  0.1+  0.4+    050527 A32  0.4-  0.3+    050611 H45  0.3-  0.7-
050512 599  0.1+  0.4+    050528 734  0.2+  0.1-    050611 H45  1.0-  2.0-
050512 012  0.8-  0.2-    050528 734  0.0   0.7-    050611 H45 (1.4+  2.2-)
050512 012  1.9-  0.2+    050528 734  0.4-  0.7-    050611 H45  0.6+  0.7-
050512 012  0.3-  0.3+    050528 151  0.1+  0.2-    050611 J76  0.2-  0.1+
050512 012  0.6+  0.0     050528 151  0.1+  0.0     050611 J76  0.1-  0.0
050512 012  0.6-  0.1-    050528 151  0.2+  0.1+    050611 J76  0.0   0.1+
050513 932  0.0   0.1+    050528 151  0.4+  0.1+    050612 J78  0.4+  0.3+
050513 932  0.3-  0.1+    050528 941  0.2+  0.5+    050612 J78  0.1+  0.4+
050513 932  0.0   0.2+    050528 941  0.0   0.3+    050612 J78  0.1-  0.9+
050514 704  0.1+  0.1-    050528 941  0.1-  0.5+    050612 J95  0.3+  0.1-
050514 704  0.4+  0.2-    050528 941  0.5-  0.4+    050612 J95  0.3+  0.0
050514 704  0.1-  0.0     050528 048  0.7+  1.0+    050612 J95  0.2+  0.2-
050514 704  0.3+  0.2-    050528 048  0.2+  0.1+    050613 340 (2.4+  1.8-)
050514 704  0.1+  0.1+    050528 048  0.4+  0.6+    050613 340 (2.8+  1.0-)
050514 A06  0.6+  0.5-    050528 048  0.7+  0.6+    050613 340 (1.2+  2.5-)
050514 A06  0.4+  0.8-    050528 048  0.9+  0.9+    050616 673  0.7+  0.4+
050514 A06  0.1+  0.8-    050528 046  0.6+  0.3+    050616 673  0.0   0.4+
050514 952  0.2+  0.0     050528 046  0.9+  0.1+    050616 673  0.0   0.5+
050514 952  0.0   0.1+    050528 046  0.5+  0.0     050616 673  0.2-  0.8+
050514 952  0.0   0.0     050528 046  0.2+  0.1-    050617 157  0.4+  0.5-
050514 952  0.2-  0.1+    050528 046  0.8+  0.3+    050617 A06 (7.8+  1.5-)
050514 952  0.2-  0.2+    050528 046  0.6+  0.2+    050617 J78 (2.2+  0.0 )
050514 147  0.0   0.2-    050528 J78  0.2+  0.3+    050617 J78  0.9+  0.4+
050514 147  0.1-  0.0     050528 J78  0.4+  0.2+    050617 J78  0.5+  0.8+
050514 147  0.0   0.1+    050528 J78  0.3+  0.0     050617 A06 (8.1+  1.7-)
050515 644  0.2+  0.0     050530 785  0.8+  0.6+    050617 A06 (7.6+  2.0-)
050515 644  0.2+  0.1+    050530 785  0.1-  0.7-    050617 939  0.8+  0.8-
050515 644  0.1+  0.0     050530 372  0.3+  0.4-    050617 A06 (7.8+  1.5-)
050515 H45  0.0   0.3+    050531 945  0.5-  0.9+    050617 939  0.1-  0.0
050515 H45  0.0   0.9-    050531 945  0.4-  0.2+    050617 A06 (8.5+  1.5-)
050515 H45  0.2-  0.3-    050531 945  0.5-  0.9+    050617 232  0.2-  0.1+
050515 H45  0.1-  0.0     050531 945  0.6-  0.7+    050617 232  1.3-  0.3+
050515 H45  0.0   0.3-    050531 945  1.0-  1.1+    050617 232  1.1-  0.3+
050517 F65  0.8-  0.9-    050531 I77  0.2-  0.2+    050618 939  0.3+  0.9-
050517 F65  0.9-  0.8-    050531 I77  0.1-  0.2-    050618 939  0.7+  1.0-
050517 F65  1.0-  0.8-    050531 I77  0.1-  0.0     050618 A06 (8.3+  1.4-)
050517 F65  1.0-  1.0-    050531 I77  0.3+  0.5-    050618 A06 (8.4+  1.5-)
050517 F65  0.8-  1.1-    050531 H45  0.2+  0.1+    050618 A06 (9.2+  1.7-)
050517 F65  1.0-  1.1-    050531 H45  0.2+  0.3-
050517 F65  1.7-  1.2-    050531 H45  0.3-  0.4-

